Flag for France Weather past 2 weeks in Dijon, France

Now
57 °F

Rain. Broken clouds.


Feels Like: 55 °F
Forecast: 46 / 62 °F
Wind: 8 mph from Northwest

Location: Dijon Airport

Current Time: May 25, 2015 at 10:45:46 PM

Latest Report: May 25, 2015 at 10:00 PM


Visibility: N/A

Pressure: 30.01 "Hg

Humidity: 88%

Dew point: 54 °F

Location of DijonLocation

Historic Weather in Dijon — Graph

°F

Dijon temperature yesterday

Maximum temperature yesterday: 72 °F (at 12:30 PM)
Minimum temperature yesterday: 50 °F (at 6:00 AM)
Average temperature yesterday: 63 °F

Past Weeks' High & Low Weather Summary

 TemperatureHumidityPressure
High82 °F (May 13, 6:00 PM)100% (May 12, 4:30 AM)30.36 "Hg (May 12, 4:30 AM)
Low43 °F (May 21, 5:30 AM)29% (May 18, 4:30 PM)29.80 "Hg (May 18, 6:00 PM)
Average60 °F64%30.10 "Hg
* Reported May 10 9:00 PM — May 25 9:30 PM, Dijon, Weather by CustomWeather, © 2015

Note: Actual official high and low records may vary slightly from our data, if they occured in-between our weather recording intervals... More about our weather records

Advertising

Dijon weather history for previous 24 hours

 ConditionsComfort  
Time TempWeatherWind HumidityBarometerVisibility
9:30 PM
Mon, May 25
57 °FCool.8 mph82%29.98 "HgN/A
9:00 PM57 °FBroken clouds.5 mph88%29.98 "HgN/A
8:30 PM59 °FLight rain. Broken clouds.5 mph88%29.98 "HgN/A
8:00 PM63 °FMostly cloudy.9 mph68%29.98 "HgN/A
7:30 PM66 °FPartly sunny.6 mph56%29.98 "HgN/A
7:00 PM66 °FPartly sunny.1 mph60%29.98 "HgN/A
6:30 PM66 °FPartly sunny.8 mph56%29.98 "HgN/A
6:00 PM66 °FMostly cloudy.8 mph56%29.98 "HgN/A
5:30 PM63 °FPartly sunny.8 mph68%30.01 "HgN/A
5:00 PM64 °FMostly cloudy.7 mph64%30.01 "HgN/A
4:30 PM61 °FPartly sunny.9 mph77%30.01 "HgN/A
4:00 PM61 °FPartly sunny.8 mph77%30.01 "HgN/A
3:30 PM59 °FMostly cloudy.5 mph82%30.04 "HgN/A
3:00 PM59 °FRain. Broken clouds.9 mph82%30.04 "HgN/A
2:30 PM64 °FMore clouds than sun.10 mph60%30.04 "HgN/A
2:00 PM63 °FMore clouds than sun.10 mph68%30.04 "HgN/A
1:30 PM64 °FSunny.13 mph60%30.04 "Hg10 mi
1:00 PM63 °FMild.12 mph64%30.04 "HgN/A
12:30 PM64 °FMostly cloudy.9 mph56%30.04 "HgN/A
12:00 PM66 °FMostly cloudy.6 mph52%30.04 "HgN/A
11:30 AM66 °FBroken clouds.2 mph56%30.04 "HgN/A
11:00 AM66 °FSunny.2 mph52%30.04 "Hg10 mi
10:30 AM66 °FSunny.3 mph49%30.04 "Hg10 mi
10:00 AM64 °FSunny.2 mph52%30.04 "Hg10 mi
9:30 AM63 °FSunny.No wind59%30.04 "Hg10 mi
9:00 AM61 °FSunny.1 mph59%30.04 "Hg10 mi
8:30 AM59 °FSunny.1 mph63%30.04 "Hg10 mi
8:00 AM57 °FSunny.3 mph67%30.04 "Hg10 mi
7:30 AM57 °FSunny.3 mph67%30.04 "Hg10 mi
7:00 AM57 °FSunny.3 mph67%30.04 "Hg10 mi
6:30 AM55 °FClear.6 mph67%30.04 "Hg10 mi
5:30 AM54 °FClear.5 mph77%30.04 "Hg10 mi
5:00 AM55 °FClear.5 mph72%30.04 "Hg10 mi
4:30 AM54 °FClear.5 mph77%30.04 "Hg10 mi
4:00 AM55 °FClear.6 mph72%30.04 "Hg10 mi
3:30 AM55 °FClear.6 mph72%30.04 "Hg10 mi
3:00 AM55 °FClear.7 mph72%30.04 "Hg10 mi
2:30 AM57 °FClear.5 mph72%30.04 "Hg10 mi
2:00 AM57 °FClear.7 mph72%30.04 "Hg10 mi
1:30 AM59 °FClear.6 mph72%30.04 "Hg10 mi
1:00 AM59 °FClear.7 mph72%30.07 "Hg10 mi
12:30 AM61 °FClear.7 mph68%30.07 "Hg10 mi
12:00 AM61 °FClear.7 mph68%30.07 "Hg10 mi
11:30 PM
Sun, May 24
63 °FClear.6 mph64%30.07 "Hg10 mi
11:00 PM63 °FClear.7 mph68%30.07 "Hg10 mi
10:30 PM63 °FClear.7 mph64%30.07 "Hg10 mi
10:00 PM64 °FPassing clouds.7 mph60%30.07 "HgN/A
Weather by CustomWeather, © 2015

See weather overviewHow to use our weather pages